Lionhead Wind

Lionhead weather stationLocated on Lionhead Ridge near West Yellowstone. Use the nearest SNOTEL station for snow depth data: Madison Plateau. The data on this page is also available to view at dataGarrison.com.

Elevation
9420ft
Jump to table bottom
Date Time Temperature
deg F
RH, % Wind Speed Wind Gust Wind Direction Pressure Light
01/29/23 17:00 -17.0 87 14 22 NW - 333 707.680 0
01/29/23 16:00 -14.8 86 14 21 NW - 334 707.380 0
01/29/23 15:00 -14.1 83 14 24 NW - 334 707.160 0
01/29/23 14:00 -13.4 84 15 26 N - 338 706.640 0
01/29/23 13:00 -12.4 81 14 26 N - 343 706.980 0
01/29/23 12:00 -13.6 82 17 28 N - 338 707.200 0
01/29/23 11:00 -14.1 81 17 28 NW - 334 707.320 0
01/29/23 10:00 -14.3 81 22 37 NW - 326 707.060 0
01/29/23 09:00 -14.5 82 23 35 NW - 326 706.640 0
01/29/23 08:00 -13.2 85 18 27 NW - 327 706.440 0
01/29/23 07:00 -14.7 90 14 27 NW - 334 706.000 0
01/29/23 06:00 -12.6 89 11 18 NW - 334 705.920 0
01/29/23 05:00 -12.7 89 10 17 N - 0 705.780 0
01/29/23 04:00 -11.4 89 11 19 N - 357 705.780 0
01/29/23 03:00 -10.8 90 14 21 N - 3 705.840 0
01/29/23 02:00 -10.3 90 11 15 N - 17 705.860 0
01/29/23 01:00 -10.4 90 11 14 NE - 27 705.940 0
01/29/23 00:00 -10.4 90 11 14 NE - 28 706.120 0
01/28/23 23:00 -9.8 90 12 15 NE - 28 706.320 0
01/28/23 22:00 -9.1 91 10 15 N - 20 706.420 0
01/28/23 21:00 -8.4 90 9 12 N - 18 706.580 0
01/28/23 20:00 -6.7 91 8 12 N - 17 706.420 0
01/28/23 19:00 -5.3 92 10 14 NE - 24 706.300 0
01/28/23 18:00 -4.8 92 9 13 NE - 25 706.160 0
01/28/23 17:00 -3.3 92 8 11 NE - 32 705.980 0
01/28/23 16:00 -0.6 92 8 11 NE - 37 705.840 0
01/28/23 15:00 2.0 93 7 12 NE - 24 705.540 0
01/28/23 14:00 1.4 92 8 11 NE - 38 705.480 0
01/28/23 13:00 2.0 93 6 9 NE - 44 705.940 0
01/28/23 12:00 1.0 93 7 14 NE - 34 706.600 0
01/28/23 11:00 4.3 94 7 12 NE - 35 706.780 0
01/28/23 10:00 4.1 93 6 12 N - 13 706.540 0
01/28/23 09:00 2.4 94 6 14 N - 3 706.500 0
01/28/23 08:00 4.3 95 6 15 N - 341 705.820 0
01/28/23 07:00 5.3 95 7 23 NW - 329 705.340 0
01/28/23 06:00 5.8 95 5 33 NW - 309 704.840 0
01/28/23 05:00 8.3 96 6 30 N - 348 705.000 0
01/28/23 04:00 9.9 97 9 28 W - 284 705.180 0
01/28/23 03:00 11.4 97 16 28 W - 263 705.500 0
01/28/23 02:00 11.6 97 10 34 W - 251 705.440 0
01/28/23 01:00 11.7 97 7 22 W - 256 706.340 0
01/28/23 00:00 11.6 97 6 19 W - 282 706.920 0
01/27/23 23:00 11.6 97 6 21 W - 285 707.280 0
01/27/23 22:00 12.2 97 6 19 W - 288 707.240 0
01/27/23 21:00 12.8 98 8 17 W - 278 707.420 0
01/27/23 20:00 13.2 98 4 19 NW - 302 707.360 0
01/27/23 19:00 14.2 98 10 17 W - 264 707.440 0
01/27/23 18:00 13.7 98 11 20 SW - 244 707.440 0
01/27/23 17:00 15.1 98 9 23 W - 271 707.400 0
01/27/23 16:00 17.0 99 4 15 W - 282 707.120 0